"Pseudo-MPEC" for P11DAVj

Created 2023 Mar 22 15:22:10 UT using Find_Orb

Click here for an explanation of pseudo-MPECs

 
 Astrometry: 
     P11DAVj* C2023 03 18OC/bv_,'jI_4I'xIe7OGLMC';dajuyB$B+Astrometry@rjLy4P8F51
     P11DAVj  C2023 03 18St_l+`X*sH;w::U\EvT5.#,F%_@Y;YKG@D%$xSL9KISe$idTwS1_F51
     P11DAVj  C2023 03 18V=`[#nr:tsZS^p,d/13Pk_:6m1v#N\8+,XVQjx*Nnj8W!%sQK2EKF51
     P11DAVj  C2023 03 18Il6Eod[-Jw:(.redacted;@3x?'3.skclickdy;$+;OT-?S#]h0-F51
     P11DAVj  C2023 03 18eJiME#du-Q)ZvmY;c7F$@Te_-hCuhereSP:WtBQHfL/rUin##c@:F52
     P11DAVj  C2023 03 18cx[=c@$R=Sfor_nHexplanationBD?sF_EUWTx1UiQJ-O+$9%]EwF52

Station data:
(F51) Pan-STARRS 1, Haleakala  (N20.707234 W156.255910)  US/Hawaii.
   Observers J. Bulger, T. Lowe, A. Schultz, M. Willman. Measurers K.
   Chambers, S. Chastel, T. de Boer, L. Denneau, J. Fairlamb, H. Flewelling,
   M. Huber, C.-C. Lin, E. Magnier, Y. Ramanjooloo, R. Wainscoat, R. Weryk.
   1.8-m Ritchey-Chrétien + CCD.
(F52) Pan-STARRS 2, Haleakala  (N20.707382 W156.255910)  US/Hawaii.
   Observers J. Bulger, T. Dukes, T. Lowe, A. Schultz, M. Willman. Measurers
   K. Chambers, S. Chastel, T. de Boer, L. Denneau, J. Fairlamb, H.
   Flewelling, M. Huber, C.-C. Lin, E. Magnier, Y. Ramanjooloo, R. Wainscoat,
   R. Weryk. 1.8-m Ritchey-Chrétien + CCD.

Orbital elements:  P11DAVj
   Perihelion 2023 Jul 19.79255 +/- 157 TT = 19:01:16 (JD 2460145.29255)
Epoch 2023 Mar 18.0 TT = JDT 2460021.5   Earth MOID: 0.1776   Ve: 0.0453
M 254.74593051 +/- 100              (J2000 ecliptic)             AutoNEOCP
n   0.85024558 +/- 0.339            Peri.  182.48554 +/- 34
a   1.10350200 +/- 0.294            Node   125.19937 +/- 39
e   0.3024520 +/- 0.193             Incl.   10.30283 +/- 27
P   1.16/423.40d           H 22.84  G  0.15   U 12.0  SR
q 0.76974556 +/- 0.329    Q 1.43725844 +/- 2.19
From 6 observations 2023 Mar. 18 (2.3 hr); mean residual 0".06
Residuals in arcseconds: 
230318 F51  .03+  .02+    230318 F51  .02+  .05+    230318 F52  .06+  .09-    
230318 F51  .04+  .07-    230318 F51  .13-  .02+    230318 F52  .02-  .08+    

Ephemerides (geocentric):
Date (UTC) HH   RA             Dec           delta  r     elong  mag " sig PA
---- --------  ------------   ------------  ------ ------ -----  --- --------
2023 03 22 15  11 24 02.693   +40 05 41.53  .32060 1.2539 138.3 22.3 1105  50
2023 03 22 16  11 23 55.446   +40 07 09.93  .32059 1.2538 138.2 22.3 1127  50
2023 03 22 17  11 23 48.197   +40 08 38.19  .32057 1.2536 138.2 22.3 1149  50
2023 03 22 18  11 23 40.944   +40 10 06.33  .32055 1.2535 138.1 22.3 1172  50
2023 03 22 19  11 23 33.688   +40 11 34.34  .32054 1.2533 138.1 22.3 1195  50
2023 03 22 20  11 23 26.428   +40 13 02.23  .32052 1.2531 138.0 22.3 1218  50
2023 03 22 21  11 23 19.166   +40 14 29.99  .32051 1.2530 138.0 22.3 1241  50
2023 03 22 22  11 23 11.900   +40 15 57.62  .32049 1.2528 137.9 22.3 1265  50
2023 03 22 23  11 23 04.631   +40 17 25.12  .32047 1.2526 137.8 22.3 1288  50
2023 03 23 00  11 22 57.359   +40 18 52.49  .32046 1.2525 137.8 22.3 1312  50
2023 03 23 01  11 22 50.084   +40 20 19.74  .32044 1.2523 137.7 22.3 1337  50
2023 03 23 02  11 22 42.806   +40 21 46.86  .32043 1.2522 137.7 22.3 1361  50
2023 03 23 03  11 22 35.524   +40 23 13.85  .32041 1.2520 137.6 22.3 1386  50
2023 03 23 04  11 22 28.240   +40 24 40.71  .32040 1.2518 137.6 22.3 1411  50
2023 03 23 05  11 22 20.953   +40 26 07.44  .32039 1.2517 137.5 22.3 1436  50
2023 03 23 06  11 22 13.662   +40 27 34.05  .32037 1.2515 137.5 22.3 1461  50
2023 03 23 07  11 22 06.369   +40 29 00.52  .32036 1.2513 137.4 22.3 1487  50
2023 03 23 08  11 21 59.073   +40 30 26.86  .32034 1.2512 137.4 22.3 1513  50
2023 03 23 09  11 21 51.774   +40 31 53.08  .32033 1.2510 137.3 22.3 1539  50
2023 03 23 10  11 21 44.472   +40 33 19.17  .32032 1.2508 137.3 22.3 1566  50
2023 03 23 11  11 21 37.167   +40 34 45.12  .32031 1.2507 137.2 22.3 1592  50
2023 03 23 12  11 21 29.860   +40 36 10.95  .32029 1.2505 137.1 22.3 1619  50
2023 03 23 13  11 21 22.550   +40 37 36.64  .32028 1.2504 137.1 22.3 1646  50
2023 03 23 14  11 21 15.237   +40 39 02.21  .32027 1.2502 137.0 22.3 1674  50
2023 03 23 15  11 21 07.921   +40 40 27.64  .32026 1.2500 137.0 22.3 1701  50
2023 03 23 16  11 21 00.603   +40 41 52.95  .32024 1.2499 136.9 22.3 1729  50
2023 03 23 17  11 20 53.282   +40 43 18.12  .32023 1.2497 136.9 22.3 1757  50
2023 03 23 18  11 20 45.958   +40 44 43.17  .32022 1.2495 136.8 22.3 1786  50
2023 03 23 19  11 20 38.632   +40 46 08.08  .32021 1.2494 136.8 22.3 1814  50
2023 03 23 20  11 20 31.304   +40 47 32.86  .32020 1.2492 136.7 22.3 1843  50
2023 03 23 21  11 20 23.972   +40 48 57.51  .32019 1.2490 136.7 22.3 1872  50
2023 03 23 22  11 20 16.639   +40 50 22.03  .32018 1.2489 136.6 22.3 1901  50
2023 03 23 23  11 20 09.303   +40 51 46.41  .32017 1.2487 136.5 22.3 1931  49
2023 03 24 00  11 20 01.964   +40 53 10.67  .32016 1.2486 136.5 22.3 1961  49
2023 03 24 01  11 19 54.623   +40 54 34.79  .32015 1.2484 136.4 22.3 1991  49
2023 03 24 02  11 19 47.279   +40 55 58.78  .32014 1.2482 136.4 22.3 2021  49
2023 03 24 03  11 19 39.934   +40 57 22.64  .32013 1.2481 136.3 22.3 2052  49
2023 03 24 04  11 19 32.586   +40 58 46.36  .32012 1.2479 136.3 22.3 2083  49
2023 03 24 05  11 19 25.235   +41 00 09.95  .32011 1.2477 136.2 22.3 2114  49
2023 03 24 06  11 19 17.883   +41 01 33.42  .32010 1.2476 136.2 22.3 2145  49
2023 03 24 07  11 19 10.528   +41 02 56.74  .32009 1.2474 136.1 22.3 2177  49
2023 03 24 08  11 19 03.171   +41 04 19.94  .32008 1.2472 136.1 22.3 2209  49
2023 03 24 09  11 18 55.811   +41 05 43.00  .32007 1.2471 136.0 22.3 2241  49
2023 03 24 10  11 18 48.450   +41 07 05.93  .32007 1.2469 135.9 22.3 2274  49
2023 03 24 11  11 18 41.086   +41 08 28.72  .32006 1.2467 135.9 22.3 2306  49
2023 03 24 12  11 18 33.721   +41 09 51.38  .32005 1.2466 135.8 22.3 2339  49
2023 03 24 13  11 18 26.353   +41 11 13.91  .32004 1.2464 135.8 22.3 2373  49
2023 03 24 14  11 18 18.983   +41 12 36.31  .32004 1.2462 135.7 22.3 2406  49